Location: Fontevrault
(47.1823°N, 0.0493°E)
Time: 09:45:03
(UTC+00:00)

Lacrosse 5 - Pass Details

Date: 29 October 2021
Orbit: 714 x 724 km, 57.0° (Epoch: 28 August)

Event Time Altitude Azimuth Distance (km) Brightness Sun altitude
Rises 18:00:59 0° 183° (S) 3,123 5.3 -12.9°
Reaches altitude 10° 18:04:00 10° 165° (SSE) 2,208 4.3 -13.5°
Maximum altitude 18:07:26 18° 122° (ESE) 1,709 3.4 -14.0°
Enters shadow 18:08:08 18° 112° (ESE) 1,733 3.3 -14.2°
